Flag for United Kingdom Weather past 2 weeks in Watford, England, United Kingdom

Now
70 °F

Partly sunny.


Feels Like: 70 °F
Forecast: 55 / 66 °F
Wind: 10 mph from Southwest

Location: Northolt

Current Time: Sep 30, 2014 at 6:53:12 PM

Latest Report: Sep 30, 2014 at 5:50 PM


Visibility: N/A

Pressure: 30.18 "Hg

Humidity: 60%

Dew point: 55 °F

Location of WatfordLocation

Historic Weather in Watford — Graph

°F

Watford temperature yesterday

Maximum temperature yesterday: 66 °F (at 2:50 PM)
Minimum temperature yesterday: 54 °F (at 3:50 AM)
Average temperature yesterday: 60 °F

Past Weeks' High & Low Weather Summary

 TemperatureHumidityPressure
High77 °F (Sep 18, 2:50 PM)100% (Sep 16, 1:50 AM)30.33 "Hg (Sep 16, 1:50 AM)
Low43 °F (Sep 22, 5:50 AM)42% (Sep 24, 5:50 PM)29.77 "Hg (Sep 18, 2:50 PM)
Average61 °F78%30.07 "Hg
* Reported Sep 15 5:50 PM — Sep 30 5:50 PM, Watford, Weather by CustomWeather, © 2014

Note: Actual official high and low records may vary slightly from our data, if they occured in-between our weather recording intervals... More about our weather records

Advertising

Watford weather history for previous 24 hours

 ConditionsComfort  
Time TempWeatherWind HumidityBarometerVisibility
5:50 PM
Sep 30
70 °FPartly sunny.10 mph60%30.18 "HgN/A
4:50 PM72 °FPartly sunny.9 mph50%30.18 "HgN/A
3:50 PM73 °FPassing clouds.9 mph50%30.21 "HgN/A
2:50 PM72 °FPassing clouds.10 mph50%30.21 "HgN/A
1:50 PM70 °FPassing clouds.9 mph57%30.21 "HgN/A
12:50 PM70 °FScattered clouds.8 mph64%30.21 "HgN/A
11:50 AM68 °FScattered clouds.8 mph69%30.21 "HgN/A
10:50 AM64 °FScattered clouds.6 mph78%30.24 "HgN/A
9:50 AM63 °FScattered clouds.7 mph77%30.21 "HgN/A
8:50 AM61 °FScattered clouds.5 mph88%30.21 "Hg5 mi
7:50 AM59 °FPassing clouds.3 mph88%30.21 "Hg5 mi
6:50 AM59 °FPassing clouds.6 mph94%30.18 "Hg4 mi
5:50 AM59 °FPartly cloudy.3 mph94%30.18 "HgN/A
4:50 AM59 °FPassing clouds.2 mph94%30.18 "Hg6 mi
3:50 AM59 °FPassing clouds.5 mph94%30.18 "HgN/A
2:50 AM59 °FLow clouds.8 mph94%30.15 "Hg5 mi
1:50 AM59 °FLow clouds.8 mph94%30.15 "Hg4 mi
12:50 AM59 °FLow clouds.6 mph94%30.15 "Hg3 mi
11:50 PM
Sep 29
57 °FPassing clouds.6 mph94%30.15 "Hg3 mi
10:50 PM57 °FHaze.3 mph94%30.15 "Hg4 mi
9:50 PM59 °FPassing clouds.6 mph88%30.12 "HgN/A
8:50 PM61 °FPassing clouds.3 mph83%30.12 "HgN/A
7:50 PM61 °FClear.6 mph88%30.12 "Hg10 mi
6:50 PM63 °FPartly sunny.5 mph83%30.09 "HgN/A
Weather by CustomWeather, © 2014

See weather overviewHow to use our weather pages